This demonstration page uses our WeatherBlox Daily Observations layout. Learn more.

Left ArrowRight Arrow

Hourly Observations for December 1, 2016

Temp ( °F °C ) Dew Point ( °F °C ) Humidity (%) Winds ( mph kmh ) Pressure ( in mb ) Visibility ( mi km ) Precip ( " mm )
12:51 am 00:51 Clear 29 -1.7 17 -8.3 61 61 NNW 3 6 29.98 1015 10 16 0.00 0.00
1:51 am 01:51 Clear 27 -2.8 17 -8.3 66 66 Calm 29.99 1016 10 16 0.00 0.00
2:51 am 02:51 Clear 25 -3.9 16 -8.9 69 69 Calm 29.99 1016 10 16 0.00 0.00
3:51 am 03:51 Clear 25 -3.9 16 -8.9 69 69 Calm 29.98 1015 10 16 0.00 0.00
4:51 am 04:51 Clear 26 -3.3 16 -8.9 66 66 Calm 29.98 1015 10 16 0.00 0.00
5:51 am 05:51 Clear 26 -3.3 16 -8.9 66 66 Calm 29.99 1016 10 16 0.00 0.00
6:51 am 06:51 Clear 25 -3.9 16 -8.9 69 69 ESE 3 6 30.03 1017 10 16 0.00 0.00
7:51 am 07:51 Sunny 30 -1.1 17 -8.3 58 58 ESE 7 11 30.03 1017 10 16 0.00 0.00
8:51 am 08:51 Sunny 42 5.6 17 -8.3 36 36 SE 8 13 30.02 1017 10 16 0.00 0.00
9:51 am 09:51 Sunny 46 7.8 16 -8.9 30 30 SE 12 19 30.01 1016 10 16 0.00 0.00
10:51 am 10:51 Sunny 50 10 17 -8.3 27 27 SSE 8 13 29.99 1016 10 16 0.00 0.00
11:51 am 11:51 Sunny 53 11.7 17 -8.3 24 24 S 5 7 29.93 1014 10 16 0.00 0.00
12:51 pm 12:51 Sunny 54 12.2 17 -8.3 23 23 S 3 6 29.90 1013 10 16 0.00 0.00
1:51 pm 13:51 Sunny 58 14.4 18 -7.8 21 21 VRB 3 6 29.86 1011 10 16 0.00 0.00
2:51 pm 14:51 Sunny 60 15.6 20 -6.7 21 21 S 5 7 29.85 1011 10 16 0.00 0.00
3:51 pm 15:51 Sunny 58 14.4 19 -7.2 22 22 W 3 6 29.85 1011 10 16 0.00 0.00
4:51 pm 16:51 Sunny 58 14.4 19 -7.2 22 22 WNW 7 11 29.84 1011 10 16 0.00 0.00
5:51 pm 17:51 Clear 54 12.2 19 -7.2 25 25 NW 10 17 29.85 1011 10 16 0.00 0.00
6:51 pm 18:51 Clear 51 10.6 19 -7.2 28 28 WNW 8 13 29.87 1011 10 16 0.00 0.00
7:51 pm 19:51 Clear 46 7.8 21 -6.1 37 37 WNW 7 11 29.87 1012 10 16 0.00 0.00
8:51 pm 20:51 Clear 45 7.2 20 -6.7 37 37 NNW 8 13 29.86 1011 10 16 0.00 0.03
9:51 pm 21:51 Clear 46 7.8 20 -6.7 35 35 undefined N/A 29.86 1011 10 16 0.00 0.00
10:51 pm 22:51 Clear 41 5 21 -6.1 45 45 WNW 5 7 29.86 1011 10 16 0.00 0.00
11:51 pm 23:51 Clear 42 5.6 22 -5.6 45 45 Calm 29.85 1011 10 16 0.00 0.00

Powered by AerisWeather